[[{"header":{"parameterUnit":"m.s-1","parameterCategory":1,"la1":30.2991,"la2":30.254,"lo1":-89.0895,"lo2":-89.0444,"dy":0.0017,"dx":0.0017,"nx":28,"ny":28,"refTime":"2024-08-13T09:00:00:Z","depth":0,"parameterNumber":2,"parameterNumberName":"U-component_of_WINDS"},"data":[0,0,0,0,0,0,0,0,0,0,0,0,0,0,0,0,0,0,0,0,0,0,0,0,0,0,0,0,0,0,0,0,0,0,0,0,0,0,0,0,0,0,0,0,0,0,0,0,0,0,0,0,0,0,0,0,0,0,5.1038,5.1038,0,5.1016,5.1016,5.1016,5.0853,5.0849,5.0845,5.0841,5.0822,5.0825,5.0828,0,0,0,0,0,0,0,0,0,0,0,0,0,5.0941,5.0944,5.1038,5.1038,5.1038,5.1016,5.1016,5.1016,5.0854,5.0849,5.0844,5.0839,5.0821,5.0824,5.0828,0,0,0,0,0,0,0,0,0,0,0,0,0,5.0958,5.0944,5.1038,5.0954,5.0946,5.1016,5.1016,5.1016,5.0855,5.0849,5.0842,5.0837,5.0819,5.0824,5.0829,5.0979,0,0,5.0844,5.0846,0,0,0,0,0,0,0,0,5.0957,5.0961,5.0967,5.096,5.0951,5.0931,5.0974,5.1003,5.0856,5.089,5.0841,5.0834,5.0863,5.0864,5.0873,5.0978,5.0977,5.0844,5.0847,5.0849,5.085,0,0,0,0,0,0,0,5.0956,5.0961,5.1029,5.0967,5.0958,5.0918,5.0914,5.0979,5.091,5.0886,5.0874,5.0874,5.0858,5.0869,5.0871,5.0977,5.0844,5.0848,5.0851,5.0853,5.1201,5.1207,0,0,0,0,0,0,5.0966,5.0962,5.103,5.1029,5.0939,5.0925,5.092,5.0944,5.0909,5.0898,5.0879,5.0866,5.0864,5.0866,5.087,5.1041,5.0849,5.0853,5.0856,5.1195,5.1203,5.121,0,0,0,0,0,0,5.0965,5.0974,5.1031,5.0992,5.0996,5.0933,5.0961,5.0946,5.0957,5.0904,5.0891,5.0903,5.0859,5.0863,5.0952,5.1038,5.0856,5.086,5.1187,5.1197,5.1206,5.1386,0,0,0,0,0,0,5.0963,5.0974,5.103,5.0994,5.0999,5.1113,5.0966,5.095,5.0966,5.0949,5.0923,5.0912,5.0855,5.0946,5.0957,5.1041,5.0864,5.1179,5.1192,5.1203,5.1372,5.14,5.1424,0,0,0,0,0,5.096,5.1083,5.1034,5.1043,5.1067,5.1119,5.1121,5.1051,5.0973,5.1029,5.0994,5.0913,5.1028,5.0956,5.0968,5.1055,5.1174,5.1188,5.1202,5.136,5.1395,5.1424,0,0,0,0,0,0,5.1132,5.1077,5.1022,5.1137,5.1134,5.1091,5.1159,5.1091,5.111,5.1094,5.1007,5.1002,5.1104,5.1089,5.101,5.1197,5.1087,5.1104,5.1203,5.1235,5.1261,5.1261,5.0868,0,0,0,0,0,5.1184,5.1229,5.1179,5.1285,5.1286,5.1224,5.1243,5.119,5.1183,5.1181,5.1153,5.115,5.1185,5.121,5.1239,5.137,5.1361,5.1435,5.1462,5.1484,5.1499,5.1564,5.1596,5.1257,5.1256,5.1256,0,0,5.129,5.1266,5.13,5.1319,5.131,5.1359,5.1223,5.1282,5.1317,5.119,5.127,5.1251,5.1242,5.1352,5.1399,5.1342,5.1591,5.1502,5.152,5.1523,5.1582,5.1614,5.1643,5.1266,5.1264,5.1263,0,0,5.1508,5.1496,5.1581,5.1575,5.1562,5.1519,5.1541,5.1508,5.1489,5.1569,5.1474,5.1516,5.1579,5.1575,5.1582,5.1799,5.1724,5.1812,5.1948,5.2013,5.2039,5.2063,5.2137,5.2165,5.1827,5.1828,5.1828,0,5.1642,5.1711,5.1634,5.1697,5.1708,5.1595,5.168,5.1679,5.1678,5.1687,5.1624,5.1699,5.1685,5.1791,5.1844,5.1855,5.1875,5.1812,5.2042,5.2064,5.2085,5.2155,5.2183,5.1838,5.1837,5.1836,5.1835,0,5.1875,5.1925,5.1995,5.1994,5.2014,5.2089,5.2023,5.2052,5.1997,5.1962,5.2044,5.2024,5.2046,5.2068,5.2016,5.2167,5.2131,5.2057,5.1943,5.2129,5.2193,5.2219,5.1853,5.1849,5.1846,5.1844,0,0,5.2199,5.2154,5.2181,5.2178,5.2156,5.2193,5.2263,5.2283,5.2308,5.2313,5.2367,5.2423,5.2353,5.2361,5.2308,5.2366,5.2535,5.2283,5.2281,5.2328,5.2697,5.275,5.2783,5.2487,5.2492,5.2496,5.2696,0,5.2406,5.2519,5.2452,5.2576,5.262,5.2513,5.2574,5.2567,5.2536,5.2569,5.2535,5.2575,5.2481,5.2485,5.2537,5.2503,5.2607,5.2488,5.2536,5.2538,5.2537,5.2817,5.2874,5.3064,5.2721,5.2726,5.2729,0,5.2661,5.2673,5.2801,5.2769,5.2784,5.284,5.2852,5.2885,5.2876,5.2849,5.2858,5.279,5.2856,5.2747,5.2836,5.2757,5.2773,5.2759,5.2765,5.2764,5.2642,5.282,5.3123,5.3151,5.2768,5.2765,5.2762,0,5.288,5.293,5.3011,5.3013,5.2978,5.3019,5.3007,5.2991,5.3007,5.3019,5.3028,5.3048,5.3059,5.3076,5.3016,5.2943,5.3113,5.2999,5.3091,5.3093,5.3128,5.3126,5.3435,5.3146,5.3145,5.3145,5.3144,0,5.3116,5.3198,5.3108,5.3159,5.3247,5.317,5.3259,5.3236,5.3223,5.3267,5.3178,5.3221,5.3141,5.3176,5.313,5.3209,5.3216,5.3196,5.3182,5.3201,5.3204,5.3208,5.3192,5.3152,5.3151,5.3149,5.3148,0,5.3374,5.3318,5.3399,5.336,5.3351,5.3418,5.3384,5.3429,5.3392,5.3449,5.3458,5.34,5.3437,5.338,5.3411,5.338,5.3488,5.3456,5.3491,5.348,5.3574,5.3565,5.3893,5.3931,5.3622,5.3625,5.3627,0,5.3526,5.3586,5.3552,5.3574,5.3566,5.3603,5.3618,5.3546,5.3565,5.3558,5.3604,5.3633,5.3652,5.3716,5.3678,5.3701,5.3666,5.378,5.3669,5.3686,5.3664,5.3659,5.3664,5.3802,5.3806,5.3809,5.3811,0,5.3801,5.3769,5.3794,5.3809,5.3829,5.3838,5.3841,5.3864,5.3787,5.3814,5.385,5.3865,5.3895,5.3925,5.3938,5.3926,5.3856,5.3847,5.3869,5.3887,5.3904,5.3893,5.3549,5.3839,5.3836,5.3834,5.3833,5.3832,5.4007,5.4054,5.4037,5.4067,5.4061,5.4065,5.4104,5.4072,5.41,5.4117,5.4074,5.412,5.4108,5.4118,5.4114,5.4149,5.4099,5.4132,5.4139,5.4147,5.416,5.3902,5.4152,5.4151,5.415,5.415,5.4149,0,5.4274,5.4257,5.4286,5.429,5.4314,5.4246,5.4245,5.4269,5.431,5.4305,5.4325,5.4365,5.4394,5.4358,5.438,5.4415,5.4383,5.4423,5.4417,5.4415,5.4206,5.4183,5.4448,5.4448,5.4448,5.4448,5.4448,5.4448,5.4415,5.449,5.4457,5.4528,5.4511,5.4553,5.4558,5.4562,5.4556,5.4605,5.4627,5.4603,5.4586,5.4605,5.4628,5.4617,5.4628,5.4678,5.4656,5.446,5.443,5.4402,5.438,5.4682,5.4683,5.4862,5.4863,5.4865]},{"header":{"parameterUnit":"m.s-1","parameterCategory":1,"la1":30.2991,"la2":30.254,"lo1":-89.0895,"lo2":-89.0444,"dy":0.0017,"dx":0.0017,"nx":28,"ny":28,"refTime":"2024-08-13T09:00:00:Z","depth":0,"parameterNumber":3,"parameterNumberName":"V-component_of_WINDS"},"data":[0,0,0,0,0,0,0,0,0,0,0,0,0,0,0,0,0,0,0,0,0,0,0,0,0,0,0,0,0,0,0,0,0,0,0,0,0,0,0,0,0,0,0,0,0,0,0,0,0,0,0,0,0,0,0,0,0,0,2.3754,2.3754,0,2.3789,2.379,2.379,2.3771,2.377,2.3769,2.3768,2.3803,2.3805,2.3807,0,0,0,0,0,0,0,0,0,0,0,0,0,2.3667,2.3669,2.3753,2.3754,2.3754,2.3789,2.379,2.379,2.3771,2.377,2.3769,2.3768,2.3803,2.3805,2.3807,0,0,0,0,0,0,0,0,0,0,0,0,0,2.3704,2.3669,2.3753,2.3749,2.3749,2.3789,2.379,2.379,2.3771,2.377,2.3769,2.3767,2.3802,2.3805,2.3808,2.3853,0,0,2.3816,2.3817,0,0,0,0,0,0,0,0,2.3702,2.3707,2.3749,2.375,2.375,2.3774,2.3772,2.3811,2.3772,2.3763,2.3768,2.3767,2.3795,2.3798,2.3808,2.3855,2.3856,2.3816,2.3818,2.3819,2.382,0,0,0,0,0,0,0,2.3699,2.3705,2.3768,2.375,2.375,2.3745,2.3749,2.3779,2.3786,2.3764,2.3762,2.3767,2.3795,2.3805,2.3809,2.3857,2.3816,2.3819,2.382,2.3821,2.3941,2.3943,0,0,0,0,0,0,2.3697,2.3703,2.3766,2.3769,2.3722,2.3748,2.3752,2.3768,2.3786,2.3788,2.3768,2.3766,2.3801,2.3805,2.381,2.3863,2.3819,2.3822,2.3823,2.394,2.3942,2.3943,0,0,0,0,0,0,2.3696,2.3703,2.3765,2.3736,2.3743,2.3751,2.3769,2.3769,2.378,2.3789,2.379,2.3778,2.38,2.3806,2.3842,2.3864,2.3823,2.3825,2.3938,2.394,2.3942,2.3971,0,0,0,0,0,0,2.3693,2.3703,2.3721,2.3736,2.3745,2.3798,2.377,2.3771,2.3785,2.3782,2.3799,2.38,2.38,2.3838,2.3845,2.3867,2.3827,2.3936,2.3939,2.3942,2.3968,2.3974,2.3979,0,0,0,0,0,2.369,2.3727,2.3722,2.3729,2.3768,2.3799,2.3804,2.3803,2.3787,2.3804,2.381,2.38,2.3861,2.3842,2.3849,2.3873,2.3934,2.3938,2.3941,2.3966,2.3973,2.3979,0,0,0,0,0,0,2.3714,2.3729,2.3723,2.3767,2.3782,2.3796,2.3818,2.3811,2.383,2.3827,2.3824,2.3828,2.3866,2.3873,2.3852,2.3917,2.3895,2.39,2.3911,2.3918,2.3923,2.392,2.383,0,0,0,0,0,2.3724,2.3749,2.3761,2.3798,2.3806,2.3811,2.3824,2.3822,2.3837,2.3843,2.3852,2.3867,2.3889,2.3904,2.3925,2.3969,2.3972,2.3989,2.3994,2.3999,2.4003,2.4025,2.4032,2.3955,2.3955,2.3954,0,0,2.3745,2.3757,2.3773,2.3803,2.3814,2.3839,2.3816,2.3844,2.3862,2.3848,2.3882,2.3889,2.3905,2.3945,2.3963,2.3952,2.4025,2.4003,2.4007,2.4008,2.4029,2.4037,2.4043,2.3957,2.3956,2.3956,0,0,2.3797,2.3809,2.384,2.3852,2.3869,2.3872,2.388,2.3895,2.3899,2.3934,2.3923,2.3944,2.3983,2.3995,2.4006,2.4061,2.4051,2.4068,2.4096,2.4117,2.4124,2.4129,2.4147,2.4154,2.4072,2.4072,2.4072,0,2.3821,2.3858,2.3857,2.3885,2.3898,2.3887,2.3918,2.3929,2.3953,2.3962,2.3949,2.3997,2.4007,2.4049,2.4062,2.4072,2.408,2.4065,2.4123,2.4128,2.4133,2.415,2.4158,2.4074,2.4074,2.4073,2.4073,0,2.3886,2.3912,2.3936,2.3959,2.3974,2.4004,2.4006,2.4022,2.4019,2.4022,2.4057,2.4069,2.4092,2.4102,2.4099,2.4143,2.4135,2.4123,2.4101,2.4142,2.4159,2.4165,2.4076,2.4076,2.4075,2.4075,0,0,2.3953,2.3975,2.3983,2.3993,2.4011,2.4031,2.4059,2.4082,2.4095,2.4111,2.4134,2.4167,2.4156,2.4168,2.4166,2.4185,2.4226,2.4171,2.4171,2.4179,2.4274,2.4282,2.429,2.422,2.4222,2.4223,2.4272,0,2.4005,2.4055,2.4054,2.41,2.4124,2.4113,2.4138,2.4151,2.4155,2.4175,2.4179,2.4202,2.4186,2.4193,2.4212,2.4217,2.4245,2.4214,2.424,2.4241,2.4235,2.4298,2.4307,2.4353,2.4278,2.4279,2.428,0,2.4071,2.409,2.4138,2.4152,2.4162,2.4184,2.4204,2.4223,2.4238,2.4239,2.4253,2.4248,2.4276,2.4253,2.4291,2.427,2.428,2.4285,2.4286,2.4288,2.4262,2.43,2.4368,2.4374,2.429,2.4289,2.4289,0,2.4113,2.4151,2.4184,2.4193,2.421,2.4226,2.4233,2.4247,2.426,2.4277,2.4285,2.4306,2.4316,2.4332,2.4332,2.4316,2.4369,2.4347,2.437,2.437,2.4381,2.438,2.445,2.439,2.439,2.439,2.439,0,2.417,2.42,2.4203,2.4223,2.4256,2.4255,2.4287,2.4293,2.4305,2.4325,2.4318,2.4337,2.4336,2.4356,2.4356,2.4386,2.4392,2.4393,2.4392,2.4393,2.4392,2.4399,2.4395,2.4392,2.4392,2.4391,2.4391,0,2.4222,2.4226,2.4261,2.4274,2.4278,2.4302,2.4313,2.4332,2.4335,2.4361,2.4367,2.4373,2.4395,2.4397,2.4423,2.4423,2.4459,2.4456,2.4454,2.4453,2.4476,2.4473,2.4552,2.4561,2.4496,2.4497,2.4497,0,2.4258,2.428,2.4296,2.4309,2.4318,2.434,2.4353,2.4353,2.4367,2.4384,2.4401,2.4423,2.444,2.4476,2.4482,2.4501,2.4497,2.4524,2.45,2.45,2.4496,2.4494,2.4496,2.4528,2.4528,2.4529,2.453,0,2.4319,2.432,2.434,2.436,2.4376,2.4392,2.4406,2.4418,2.4419,2.4435,2.4458,2.4471,2.4497,2.4519,2.4538,2.4545,2.4537,2.4537,2.4543,2.4543,2.4541,2.4541,2.4465,2.4535,2.4534,2.4534,2.4534,2.4533,2.4363,2.4382,2.4396,2.4418,2.4429,2.4443,2.4461,2.4466,2.4486,2.4507,2.4506,2.4531,2.4543,2.4568,2.4577,2.4596,2.4587,2.4596,2.4598,2.46,2.4602,2.4539,2.4599,2.4599,2.4599,2.4599,2.4599,0,2.4423,2.4432,2.4452,2.4472,2.4489,2.4481,2.4497,2.4511,2.4534,2.4547,2.4564,2.4589,2.461,2.4617,2.4637,2.465,2.4647,2.4655,2.4654,2.4655,2.4609,2.4602,2.4657,2.4657,2.4657,2.4657,2.4657,2.4657,2.4457,2.4488,2.449,2.4526,2.4534,2.4559,2.4568,2.458,2.459,2.462,2.4637,2.4641,2.4652,2.4672,2.469,2.4691,2.4698,2.4708,2.4707,2.4664,2.4658,2.4653,2.4645,2.4709,2.471,2.4751,2.4752,2.4752]}]]